This demonstration page uses our WeatherBlox Daily Observations layout. Learn more.

40.92945, -100.16068

Hourly Observations for March 18, 2018

Temp ( °F °C ) Dew Point ( °F °C ) Humidity (%) Winds ( mph kmh ) Pressure ( in mb ) Visibility ( mi km ) Precip ( " mm )
12:15 am 00:15 Clear 32 -0.2 29 -1.5 91 91 SE 9 15 30.09 1019 7 11.26538 0 0
12:35 am 00:35 Clear 31 -0.3 29 -1.5 92 92 SE 7 11 30.09 1019 7 11.26538 0 0
12:55 am 00:55 Clear 31 -0.6 29 -1.7 92 92 SE 6 9 30.09 1019 7 11.26538 0 0
1:15 am 01:15 Clear 31 -0.5 29 -1.5 93 93 SE 6 9 30.09 1019 7 11.26538 0 0
1:35 am 01:35 Clear with Mist and Fog 31 -0.7 29 -1.9 92 92 SE 8 13 30.09 1019 5 8.0467 0 0
1:55 am 01:55 Clear with Mist and Fog 31 -0.8 29 -1.9 92 92 SE 6 9 30.09 1019 5 8.0467 0 0
2:15 am 02:15 Clear with Mist and Fog 31 -0.7 29 -1.9 92 92 SE 7 11 30.09 1019 5 8.0467 0 0
2:35 am 02:35 Clear with Mist and Fog 30 -1.2 28 -2.4 92 92 SSE 7 11 30.09 1019 5 8.0467 0 0
2:55 am 02:55 Clear with Mist and Fog 29 -1.5 28 -2.5 93 93 SSE 7 11 30.12 1020 5 8.0467 0 0
3:15 am 03:15 Clear with Mist and Fog 29 -1.6 27 -2.6 93 93 SE 5 7 30.09 1019 5 8.0467 0 0
3:35 am 03:35 Clear with Mist and Fog 29 -1.4 28 -2.4 93 93 SE 5 7 30.09 1019 5 8.0467 0 0
3:55 am 03:55 Partly Cloudy with Mist and Fog 29 -1.4 28 -2.5 92 92 ESE 5 7 30.09 1019 5 8.0467 0 0
4:15 am 04:15 Partly Cloudy with Mist and Fog 29 -1.7 27 -2.7 93 93 SE 6 9 30.06 1018 5 8.0467 0 0
4:35 am 04:35 Clear with Mist and Fog 29 -1.5 28 -2.5 93 93 SE 5 7 30.06 1018 5 8.0467 0 0
4:55 am 04:55 Clear with Mist and Fog 30 -1.3 28 -2.2 94 94 ESE 7 11 30.03 1017 5 8.0467 0 0
5:15 am 05:15 Clear with Mist and Fog 29 -1.7 27 -2.7 93 93 ESE 6 9 30.03 1017 5 8.0467 0 0
5:35 am 05:35 Partly Cloudy with Mist and Fog 28 -2.5 26 -3.4 94 94 E 3 6 30.03 1017 4 6.43736 0 0
5:55 am 05:55 Mostly Cloudy with Mist and Fog 28 -2.3 26 -3.1 94 94 E 7 11 30.03 1017 4 6.43736 0 0
6:15 am 06:15 Cloudy with Freezing Fog 28 -2 27 -2.8 94 94 ESE 5 7 30.03 1017 0.5 0.80467 0 0
6:35 am 06:35 Cloudy with Mist and Fog 29 -1.6 28 -2.5 94 94 SE 5 7 30.03 1017 0.75 1.207005 0 0
6:55 am 06:55 Cloudy with Mist and Fog 30 -1.3 28 -2 95 95 ESE 8 13 30.03 1017 2.5 4.02335 0 0
7:15 am 07:15 Cloudy with Mist and Fog 30 -1.1 29 -1.9 94 94 ESE 6 9 30.03 1017 2.5 4.02335 0 0
7:35 am 07:35 Cloudy with Mist and Fog 30 -1 29 -1.7 95 95 ESE 6 9 30.03 1017 1.5 2.41401 0 0
7:55 am 07:55 Cloudy with Mist and Fog 30 -1 29 -1.7 95 95 ESE 8 13 30.06 1018 1.25 2.011675 0 0
8:15 am 08:15 Cloudy with Mist and Fog 31 -0.6 30 -1.3 95 95 ESE 8 13 30.03 1017 1 1.60934 0 0
8:35 am 08:35 Cloudy with Freezing Fog 32 -0.2 30 -1 94 94 ESE 7 11 30.03 1017 0.5 0.80467 0 0
8:55 am 08:55 Cloudy with Fog 32 0 31 -0.7 95 95 SE 9 15 30 1016 0.25 0.402335 0 0
9:15 am 09:15 Cloudy with Fog 32 0 31 -0.3 98 98 SE 9 15 30 1016 0.25 0.402335 0 0
9:35 am 09:35 Cloudy with Fog 33 0.4 32 0 97 97 ESE 12 19 30 1016 0.25 0.402335 0 0
9:55 am 09:55 Cloudy with Fog 33 0.6 32 0 96 96 SE 12 19 30 1016 0.5 0.80467 0 0
10:15 am 10:15 Cloudy with Mist and Fog 34 1 32 0.2 94 94 SE 10 17 30 1016 1 1.60934 0 0
10:35 am 10:35 Cloudy with Mist and Fog 34 1 32 0.2 94 94 SE 10 17 30 1016 0.75 1.207005 0 0
10:55 am 10:55 Cloudy with Mist and Fog 34 1.2 33 0.5 95 95 SE 12 19 30 1016 1.25 2.011675 0 0
11:15 am 11:15 Cloudy with Mist and Fog 35 1.5 33 0.8 95 95 SE 10 17 29.97 1015 2 3.21868 0 0
11:35 am 11:35 Cloudy with Mist and Fog 35 1.8 34 1.1 95 95 ESE 10 17 29.97 1015 2.5 4.02335 0 0
11:55 am 11:55 Cloudy with Mist and Fog 36 2.1 35 1.4 95 95 SSE 10 17 30 1016 3 4.82802 0 0
12:15 pm 12:15 Cloudy with Mist and Fog 37 2.5 35 1.4 93 93 SE 10 17 29.97 1015 4 6.43736 0 0
12:35 pm 12:35 Cloudy with Mist and Fog 37 2.6 34 1.2 91 91 ESE 14 22 29.91 1013 4 6.43736 0 0
12:55 pm 12:55 Cloudy with Mist and Fog 37 3 34 1.1 87 87 ESE 10 17 29.91 1013 4 6.43736 0 0
1:15 pm 13:15 Cloudy with Mist and Fog 38 3.3 34 1.2 86 86 ESE 13 20 29.91 1013 5 8.0467 0 0
1:35 pm 13:35 Cloudy with Mist and Fog 39 3.7 35 1.5 86 86 ESE 14 22 29.88 1012 5 8.0467 0 0
1:55 pm 13:55 Cloudy 40 4.2 35 1.5 83 83 ESE 13 20 29.88 1012 7 11.26538 0 0
2:15 pm 14:15 Cloudy with Haze 39 4 34 1.3 83 83 ESE 13 20 29.88 1012 5 8.0467 0 0
2:35 pm 14:35 Cloudy with Haze 39 3.9 35 1.4 84 84 ESE 16 26 29.85 1011 5 8.0467 0 0
2:55 pm 14:55 Cloudy with Haze 39 3.9 34 1.2 83 83 E 14 22 29.85 1011 5 8.0467 0 0
3:15 pm 15:15 Cloudy with Mist and Fog 39 4.1 35 1.5 83 83 E 18 30 29.83 1010 5 8.0467 0 0
3:35 pm 15:35 Cloudy with Haze 40 4.3 35 1.6 83 83 E 14 22 29.83 1010 5 8.0467 0 0
3:55 pm 15:55 Cloudy with Mist and Fog 39 4.1 35 1.5 83 83 ESE 16 26 29.83 1010 5 8.0467 0 0
4:15 pm 16:15 Cloudy with Mist and Fog 39 4.1 35 1.4 83 83 E 14 22 29.83 1010 5 8.0467 0 0
4:35 pm 16:35 Cloudy 40 4.5 35 1.5 81 81 E 14 22 29.77 1008 7 11.26538 0 0
4:55 pm 16:55 Cloudy with Mist and Fog 39 4 35 1.5 84 84 E 14 22 29.8 1009 5 8.0467 0 0
5:15 pm 17:15 Cloudy with Mist and Fog 38 3.6 35 1.5 86 86 E 14 22 29.8 1009 4 6.43736 0 0
5:35 pm 17:35 Cloudy with Mist and Fog 39 3.7 35 1.5 86 86 E 13 20 29.8 1009 5 8.0467 0 0
5:55 pm 17:55 Cloudy with Mist and Fog 39 3.8 35 1.4 85 85 E 9 15 29.8 1009 5 8.0467 0 0
6:15 pm 18:15 Cloudy with Mist and Fog 39 4 35 1.5 84 84 E 12 19 29.8 1009 4 6.43736 0 0
6:35 pm 18:35 Cloudy with Haze 39 4 34 1.3 83 83 E 13 20 29.8 1009 5 8.0467 0 0
6:55 pm 18:55 Cloudy 39 4.1 34 1.3 82 82 E 10 17 29.8 1009 7 11.26538 0 0
7:15 pm 19:15 Cloudy with Mist and Fog 39 4.1 35 1.5 83 83 E 10 17 29.8 1009 5 8.0467 0 0
7:35 pm 19:35 Cloudy with Haze 40 4.2 35 1.7 84 84 E 12 19 29.77 1008 5 8.0467 0 0
7:55 pm 19:55 Cloudy with Mist and Fog 40 4.2 36 2 86 86 ENE 12 19 29.83 1010 5 8.0467 0 0
8:15 pm 20:15 Cloudy 40 4.3 36 2 85 85 ENE 10 17 29.83 1010 7 11.26538 0 0
8:35 pm 20:35 Cloudy with Mist and Fog 39 4.1 36 2 86 86 ENE 15 24 29.83 1010 5 8.0467 0 0
8:55 pm 20:55 Cloudy with Mist and Fog 39 3.8 36 2 88 88 ENE 14 22 29.83 1010 3 4.82802 0 0
9:15 pm 21:15 Cloudy with Mist and Fog 38 3.5 36 2.1 91 91 ENE 13 20 29.83 1010 2.5 4.02335 0 0
9:35 pm 21:35 Cloudy with Mist and Fog 38 3.5 36 2 90 90 ENE 15 24 29.83 1010 4 6.43736 0 0
9:55 pm 21:55 Cloudy with Mist and Fog 38 3.3 36 2 91 91 ENE 16 26 29.83 1010 3 4.82802 0 0
10:15 pm 22:15 Cloudy with Mist and Fog 38 3.2 36 2 92 92 ENE 15 24 29.83 1010 3 4.82802 0 0
10:35 pm 22:35 Cloudy with Nearby Thunderstorms 37 3 35 1.9 93 93 ENE 12 19 29.85 1011 3 4.82802 0 0
10:55 pm 22:55 Cloudy with Mist and Fog 37 2.8 35 1.7 93 93 NE 15 24 29.83 1010 2 3.21868 0 0
11:15 pm 23:15 Cloudy with Mist and Fog 37 2.7 35 1.7 93 93 ENE 15 24 29.85 1011 2.5 4.02335 0 0
11:35 pm 23:35 Cloudy with Nearby Thunderstorms 37 2.7 35 1.7 93 93 E 14 22 29.83 1010 2.5 4.02335 0 0
11:55 pm 23:55 Cloudy with Mist and Fog 37 2.6 35 1.6 93 93 ENE 13 20 29.83 1010 2 3.21868 0 0

Powered by AerisWeather